Location: Del Amo
(33.8464°N, 118.2104°W)
Time: 15:19:11
(UTC+00:00)

Tiros 1 despin weight - Pass Details

Date: 22 September 2024
Orbit: 573 x 615 km, 48.2° (Epoch: 04 October)

Event Time Altitude Azimuth Distance (km) Brightness Sun altitude
Exits shadow 12:52:37 - 316° (NW) 2,765 ? -10.9°
Reaches altitude 10° 12:54:59 10° 329° (NNW) 1,978 ? -10.4°
Maximum altitude 12:58:38 23° 23° (NNE) 1,314 ? -9.7°
Drops below altitude 10° 13:02:17 10° 76° (ENE) 1,975 ? -8.9°
Sets 13:04:59 0° 91° (E) 2,876 ? -8.4°
